TimeCDT,TemperatureF,Dew PointF,Humidity,Sea Level PressureIn,VisibilityMPH,Wind Direction,Wind SpeedMPH,Gust SpeedMPH,PrecipitationIn,Events,Conditions,WindDirDegrees,DateUTC
12:59 AM,60.4,51.8,73,30.07,10.0,North,8.1,-,N/A,,Partly Cloudy,360,2012-10-09 05:59:00
1:55 AM,58.6,52.5,80,30.07,10.0,North,8.1,-,N/A,,Clear,10,2012-10-09 06:55:00
2:55 AM,57.4,52.0,82,30.06,10.0,North,8.1,-,N/A,,Clear,10,2012-10-09 07:55:00
3:55 AM,56.3,51.6,84,30.06,10.0,North,9.2,-,N/A,,Clear,10,2012-10-09 08:55:00
4:55 AM,55.4,51.4,87,30.07,10.0,North,8.1,-,N/A,,Clear,10,2012-10-09 09:55:00
5:55 AM,54.5,51.4,89,30.07,10.0,North,6.9,-,N/A,,Clear,360,2012-10-09 10:55:00
6:55 AM,54.0,51.8,92,30.09,9.0,North,4.6,-,N/A,,Clear,360,2012-10-09 11:55:00
7:56 AM,57.2,53.2,87,30.11,9.0,North,5.8,-,N/A,,Clear,10,2012-10-09 12:56:00
8:55 AM,63.1,56.7,79,30.11,7.0,NNE,6.9,-,N/A,,Partly Cloudy,30,2012-10-09 13:55:00
9:24 AM,64.4,57.2,77,30.11,7.0,ENE,4.6,-,N/A,,Partly Cloudy,70,2012-10-09 14:24:00
9:55 AM,67.3,58.6,74,30.12,7.0,NE,5.8,-,N/A,,Partly Cloudy,40,2012-10-09 14:55:00
10:55 AM,73.9,59.5,61,30.12,10.0,Variable,2.3,-,N/A,,Partly Cloudy,0,2012-10-09 15:55:00
11:55 AM,77.0,57.9,52,30.10,10.0,NNW,8.1,-,N/A,,Partly Cloudy,330,2012-10-09 16:55:00
12:58 PM,78.1,59.0,52,30.08,10.0,SSW,4.6,-,N/A,,Partly Cloudy,210,2012-10-09 17:58:00
1:56 PM,76.5,62.1,61,30.05,10.0,SSW,9.2,-,N/A,,Partly Cloudy,210,2012-10-09 18:56:00
2:58 PM,77.7,61.3,57,30.04,10.0,SSW,9.2,-,N/A,,Partly Cloudy,200,2012-10-09 19:58:00
3:57 PM,77.5,61.5,58,30.04,10.0,South,8.1,-,N/A,,Partly Cloudy,170,2012-10-09 20:57:00
4:58 PM,77.0,61.9,59,30.04,10.0,South,6.9,-,N/A,,Partly Cloudy,180,2012-10-09 21:58:00
5:55 PM,75.4,63.3,66,30.04,10.0,SSW,6.9,-,N/A,,Partly Cloudy,200,2012-10-09 22:55:00
6:56 PM,73.0,63.1,71,30.04,10.0,SSW,5.8,-,N/A,,Partly Cloudy,210,2012-10-09 23:56:00
7:56 PM,71.8,63.7,76,30.06,10.0,SSW,4.6,-,N/A,,Clear,200,2012-10-10 00:56:00
8:57 PM,66.7,62.2,85,30.06,10.0,NE,5.8,-,N/A,,Clear,40,2012-10-10 01:57:00
9:58 PM,65.1,61.5,88,30.09,10.0,NNE,4.6,-,N/A,,Clear,20,2012-10-10 02:58:00
10:55 PM,65.3,61.3,87,30.09,10.0,NE,4.6,-,N/A,,Clear,50,2012-10-10 03:55:00
11:57 PM,65.7,62.6,90,30.09,10.0,ENE,3.5,-,N/A,,Clear,60,2012-10-10 04:57:00